Flag for Bahamas Weather past 2 weeks in Nassau, Bahamas

Now
82 °F

Passing clouds.


Feels Like: 89 °F
Forecast: 79 / 87 °F
Wind: 9 mph from Southeast

Location: Nassau Airport

Current Time: Jul 22, 2014 at 10:28:11 AM

Latest Report: Jul 22, 2014 at 7:00 AM


Visibility: N/A

Pressure: 30.05 "Hg

Humidity: 79%

Dew point: 75 °F

Location of NassauLocation

Historic Weather in Nassau — Graph

°F

Nassau temperature yesterday

Maximum temperature yesterday: 88 °F (at 11:00 AM)
Minimum temperature yesterday: 75 °F (at 11:00 PM)
Average temperature yesterday: 82 °F

Past Weeks' High & Low Weather Summary

 TemperatureHumidityPressure
High91 °F (Jul 7, 2:00 PM)100% (Jul 9, 4:00 PM)30.17 "Hg (Jul 9, 4:00 PM)
Low48 °F (Jul 9, 4:00 PM)17% (Jul 15, 6:00 PM)30.00 "Hg (Jul 15, 8:00 PM)
Average83 °F75%30.08 "Hg
* Reported Jul 7 7:00 AM — Jul 22 7:00 AM, Nassau, Weather by CustomWeather, © 2014

Note: Actual official high and low records may vary slightly from our data, if they occured in-between our weather recording intervals... More about our weather records

Advertising

Nassau weather history for previous 24 hours

 ConditionsComfort  
Time TempWeatherWind HumidityBarometerVisibility
7:00 AM
Jul 22
82 °FPassing clouds.9 mph79%30.05 "HgN/A
6:00 AM82 °FPartly cloudy.9 mph79%30.03 "HgN/A
5:00 AM82 °FPartly cloudy.12 mph84%30.02 "HgN/A
4:00 AM81 °FPassing clouds.7 mph84%30.03 "HgN/A
3:00 AM79 °FPartly cloudy.No wind89%30.06 "HgN/A
2:00 AM77 °FThundershowers. Mostly cloudy.3 mph100%30.07 "HgN/A
1:00 AM75 °FThunderstorms. Overcast.No wind89%30.08 "Hg6 mi
12:00 AM75 °FThunderstorms. Partly cloudy.No wind89%30.08 "Hg6 mi
11:00 PM
Jul 21
75 °FThunderstorms. Overcast.3 mph100%30.12 "Hg2 mi
10:00 PM79 °FRain showers. Passing clouds.9 mph84%30.07 "Hg4 mi
9:00 PM82 °FPartly cloudy.7 mph79%30.06 "HgN/A
8:00 PM84 °FPartly sunny.7 mph79%30.05 "HgN/A
7:00 PM86 °FBroken clouds.7 mph70%30.04 "HgN/A
6:00 PM84 °FScattered clouds.7 mph74%30.04 "HgN/A
5:00 PM88 °FScattered clouds.9 mph70%30.03 "HgN/A
4:00 PM88 °FScattered clouds.12 mph66%30.03 "HgN/A
3:00 PM88 °FScattered clouds.12 mph66%30.04 "HgN/A
2:00 PM88 °FBroken clouds.9 mph75%30.05 "HgN/A
1:00 PM88 °FThunderstorms. Cloudy.10 mph70%30.06 "HgN/A
12:00 PM88 °FThunderstorms. Broken clouds.12 mph70%30.07 "HgN/A
11:00 AM88 °FThunderstorms. Broken clouds.13 mph75%30.06 "HgN/A
10:00 AM79 °FSprinkles. Partly sunny.2 mph89%30.06 "HgN/A
Weather by CustomWeather, © 2014

See weather overviewHow to use our weather pages